Weather Roundup
Issued by NWS Chicago, IL

Home | Current Version | Previous Version | Graphics & Text | Print | Product List | Glossary On
Versions: 1 2 3 4 5 6 7 8 9 10 11 12 13 14 15 16 17 18 19 20 21 22 23 24 25 26 27 28 29 30 31 32 33 34 35 36 37 38 39 40 41 42 43 44 45 46 47 48 49 50
000
NZUS59 KLOT 300203
HRRLOT

CHICAGO AREA WEATHER ROUNDUP
NATIONAL WEATHER SERVICE CHICAGO/ROMEOVILLE IL
900 PM CDT WED MAR 29 2017

NOTE: "FAIR" INDICATES FEW OR NO CLOUDS BELOW 12,000 FEET WITH NO
SIGNIFICANT WEATHER AND/OR OBSTRUCTIONS TO VISIBILITY.

* THESE STATIONS ARE NOT UNDER NWS QUALITY CONTROL. THEY ALSO MAY NOT
  REPORT WEATHER SUCH AS PRECIPITATION OR FOG.

ILZ005-006-012>014-019>023-300300-
NORTHEAST ILLINOIS

CITY           SKY/WX    TMP DP  RH WIND       PRES   REMARKS
OHARE          LGT RAIN  44  38  79 NE13      30.10R
MIDWAY         LGT RAIN  47  39  74 NE16G23   30.08R
AURORA         CLOUDY    44  38  79 NE20      30.03F
LANSING*       LGT RAIN  47  43  84 E9        30.05R
JOLIET*        RAIN      47  43  86 NE8       30.04F
WAUKEGAN       LGT RAIN  39  37  92 N13G22    30.11S
DUPAGE AIRPORT CLOUDY    43  40  89 NE14      30.05F
WHEELING       LGT RAIN  42  38  85 NE10      30.13R
KANKAKEE*      CLOUDY    50  41  70 E20       30.00F
MORRIS*        LGT RAIN  46  42  87 NE6       30.02R
LEWIS AIRPORT* LGT RAIN  44  42  94 NE14G21   30.04F
NORTHERLY ISL    N/A     41  38  89 N10         N/A
$$

WIZ051-052-058>065-066-070>072-300300-
SOUTHEAST WISCONSIN

CITY           SKY/WX    TMP DP  RH WIND       PRES   REMARKS
MILWAUKEE      LGT RAIN  38  34  85 N15       30.17F
KENOSHA*       LGT RAIN  39  36  89 NE14      30.13S
RACINE*        LGT RAIN  39  35  86 N14       30.17F
WAUKESHA       RAIN      36  32  87 E6        30.18R
WEST BEND      CLOUDY    37  32  81 E8        30.17F
$$

INZ001>003-010>013-019-020-300300-
NORTHWEST INDIANA

CITY           SKY/WX    TMP DP  RH WIND       PRES   REMARKS
GARY*          LGT RAIN  48  39  71 E9        30.07F
MICHIGAN CITY* NOT AVBL
RENSSELAER*    NOT AVBL
VALPARAISO     CLOUDY    49  39  68 E15       30.07R
$$

LMZ740>746-300300-
SOUTHERN LAKE MICHIGAN

STATION/POSITION TIME  SKY/WX   TEMP WIND        PRES    VSBY
                                AIR  DIR/SP/G
                 (UTC)          (F)  (DEG/KT/KT) (MB)    (MI)
HARRISON CRIB    0140            43   50/ 20/ 21   N/A
BURNHAM HARBOR   0200            41   10/  7/ 14   N/A
CALUMET HARBOR   0130            44   50/ 12/ 16 1017.5F
BURNS HARBOR     0101            47   60/ 10/ 19 1019.6
MICHIGAN CITY    0140            49   70/ 16/ 20   N/A
$$

ABBREVIATIONS USED IN REMARKS
   TC - TEMPERATURE IN CELSIUS
  WCI - WIND CHILL INDEX
   HX - HEAT INDEX
  VSB - VISIBILITY
$$




USA.gov is the U.S. government's official web portal to all federal, state and local government web resources and services.